Location: Cassano d�Adda
(45.5333°N, 9.5167°E)
Time: 23:23:53
(UTC+00:00)

YAOGAN 1 - Pass Details

Date: 08 December 2019
Orbit: 619 x 621 km, 98.0° (Epoch: 20 January)

Event Time Altitude Azimuth Distance (km) Brightness Sun altitude
Rises 18:34:46 0° 192° (SSW) 2,884 6.2 -30.0°
Reaches altitude 10° 18:37:11 10° 204° (SSW) 1,984 5.4 -30.4°
Maximum altitude 18:40:56 29° 264° (W) 1,157 4.5 -31.0°
Drops below altitude 10° 18:44:43 10° 325° (NW) 1,998 5.5 -31.7°
Sets 18:47:10 0° 337° (NNW) 2,910 6.3 -32.1°
